Wind_Speed
23 27 22 20 17 16 15 14 14 14 10 12 13 14 17 16 16 16 17 18 19 21 21 20 19 19 19 19 18 18 19 20 21 22 20 18 16 16 17 16 15 18 11
26 27 22 21 19 16 15 15 15 13 11 12 14 17 16 17 16 16 17 17 17 17 17 18 18 18 18 18 17 18 21 21 18 15 18 19 15 15 16 17 19 21 20
27 26 23 21 19 17 17 15 14 12 10 13 14 15 16 16 16 16 16 16 17 17 16 17 16 16 16 16 18 18 18 17 14 10 9 18 17 16 17 16 16 18 19
29 26 23 21 20 18 17 16 13 10 11 14 14 14 16 14 15 15 16 15 15 16 16 15 15 15 15 14 15 17 18 19 19 15 16 14 15 15 15 14 15 15 14
26 25 22 22 20 18 16 15 12 11 11 13 14 14 14 13 15 15 15 15 15 15 14 14 15 15 14 14 14 15 16 17 18 14 11 11 9 12 12 12 12 13 14
24 26 23 21 19 18 17 14 13 11 12 12 14 13 14 13 13 14 15 15 15 14 14 13 14 14 13 13 12 13 14 15 13 11 10 8 7 10 11 12 12 13 14
26 24 23 20 18 17 16 14 12 11 13 13 13 12 12 11 12 12 13 14 13 13 12 12 11 11 11 10 9 11 12 13 11 9 7 3 6 8 10 12 14 14 14
25 22 22 18 17 17 15 14 12 11 15 14 14 12 10 10 9 9 10 11 11 11 10 9 9 8 8 8 8 8 9 10 10 7 3 5 5 5 7 9 12 14 15
23 22 20 19 17 17 15 13 11 12 15 14 14 13 12 6 4 8 9 9 8 8 8 7 6 6 5 5 6 6 8 9 8 9 5 5 2 3 3 6 8 10 13
27 22 19 18 18 18 15 12 10 11 14 13 14 14 11 6 2 5 7 7 7 6 6 5 5 4 4 4 4 4 5 8 7 5 3 6 2 2 2 3 5 7 11
26 23 22 18 17 16 16 13 10 9 11 12 12 10 6 3 5 4 6 4 5 4 4 3 3 2 2 4 5 5 5 5 4 4 5 7 4 2 5 5 4 6 9
19 22 20 20 19 20 16 15 9 6 8 9 9 9 7 6 6 7 3 4 5 3 2 2 2 2 4 4 6 6 5 4 3 5 6 8 6 4 3 5 6 6 8
23 18 19 20 12 25 19 18 13 8 8 8 9 6 5 9 7 6 2 3 4 1 2 2 2 3 2 3 4 5 6 8 4 5 7 10 9 7 5 2 6 6 7
23 21 18 17 11 22 19 19 16 10 12 10 10 8 8 8 6 5 7 1 1 4 1 5 6 4 4 6 4 6 6 7 7 6 8 10 10 9 7 4 8 8 8
19 23 22 18 14 16 15 16 14 12 12 9 11 10 8 8 7 9 7 7 6 6 6 7 5 5 7 6 6 8 7 7 8 8 10 11 11 10 9 8 10 10 9
6 13 17 16 16 15 15 14 14 14 11 11 11 10 10 8 7 7 8 8 8 8 7 7 7 7 7 7 8 7 9 10 10 12 11 12 14 12 12 12 12 12 12
11 15 18 15 17 15 15 15 14 14 10 13 11 10 10 10 8 8 7 8 7 8 7 8 8 9 10 10 10 11 11 11 12 13 14 15 16 14 14 13 13 15 13
13 18 19 19 18 17 16 15 16 13 13 11 10 11 12 11 11 10 9 7 7 7 8 8 9 10 11 11 12 12 12 12 14 15 13 12 14 16 15 15 13 14 14
16 18 17 17 16 16 14 15 15 13 11 12 11 11 11 12 12 11 9 8 8 9 9 9 10 11 13 14 15 16 15 16 17 17 17 16 15 15 15 11 14 12 13
14 16 17 18 18 16 16 14 15 14 13 14 14 12 11 12 12 12 11 10 10 10 11 12 14 15 17 17 17 16 18 17 17 19 18 14 11 7 7 8 9 11 10
15 17 19 18 19 18 17 18 14 17 13 14 14 12 11 11 10 10 12 11 11 12 13 13 15 16 16 16 17 18 18 13 19 20 16 12 3 3 5 8 6 6 6
11 17 19 20 19 20 19 18 18 16 16 17 15 14 12 10 12 13 13 13 14 15 16 16 17 16 17 17 7 3 3 8 13 14 10 4 4 6 4 4 6 4 5
16 13 19 21 19 19 18 17 17 14 12 12 11 12 13 13 14 15 17 18 19 19 20 20 20 19 17 16 16 10 3 3 5 1 2 2 3 3 2 6 5 4 2
17 17 11 12 19 20 20 19 20 16 7 7 8 11 12 12 11 11 11 11 12 12 12 14 13 14 14 16 13 16 19 14 2 3 4 4 4 4 4 1 3 2 1
18 19 18 15 14 19 19 17 12 9 8 10 11 10 7 7 7 8 9 10 10 10 11 12 13 11 12 13 15 14 15 17 16 9 4 6 4 3 1 3 5 3 4
14 14 15 15 13 12 16 15 11 13 13 9 7 5 5 6 8 8 10 9 9 10 10 12 13 13 14 13 13 13 16 10 8 6 4 7 6 8 3 4 6 4 0
Wind_Direction
142 147 151 149 141 134 130 125 118 108 100 92 91 98 98 88 83 81 79 78 80 83 86 87 88 84 82 80 80 81 79 78 75 70 64 69 74 76 76 75 61 45 44
145 148 150 147 144 141 133 123 113 110 102 97 100 104 94 86 83 84 85 85 88 90 90 90 86 83 83 82 81 80 82 81 79 76 64 54 69 72 70 66 58 51 57
139 150 148 148 147 142 131 121 117 111 112 112 107 102 95 86 86 87 90 90 95 98 98 92 89 85 86 86 79 79 85 74 67 60 62 63 71 76 68 58 53 51 52
141 146 152 150 149 142 136 132 126 120 123 120 115 114 102 94 90 92 96 97 95 96 96 94 90 85 85 85 80 80 84 73 68 76 79 78 76 72 62 55 45 44 47
140 144 152 150 150 147 141 131 125 114 119 125 123 121 110 98 92 93 95 97 101 104 100 96 90 85 84 85 84 83 81 73 72 77 85 77 64 61 54 46 41 44 45
143 151 151 151 149 145 137 130 124 114 122 130 134 123 120 100 91 94 95 96 98 100 100 96 90 85 86 86 84 84 79 76 69 77 62 66 75 65 56 48 52 53 51
140 146 149 150 149 145 138 133 122 115 124 127 139 125 131 102 91 95 97 96 98 101 102 99 94 87 83 84 82 77 82 82 70 66 70 36 85 73 60 50 55 54 46
135 141 148 149 148 146 142 134 119 118 127 127 135 133 127 98 92 96 102 103 104 104 105 103 97 91 84 78 76 73 73 70 72 50 42 36 87 77 62 55 48 45 39
129 143 147 150 150 146 144 135 123 128 136 135 145 145 136 128 106 111 114 110 107 106 104 103 100 93 83 72 68 66 74 77 60 53 68 13 54 83 48 40 38 32 27
139 136 149 152 151 149 147 139 125 131 147 138 142 147 149 161 140 129 123 125 120 118 115 111 104 94 78 63 52 46 64 60 42 28 334 350 23 69 331 339 16 14 14
137 146 153 150 153 155 153 151 136 127 151 158 156 160 154 130 127 145 137 139 139 131 123 112 99 86 71 56 26 22 58 43 6 354 316 330 346 319 332 246 311 342 356
131 140 156 162 161 161 166 161 168 138 147 152 176 181 153 189 156 178 184 203 177 159 138 100 80 68 65 27 342 357 11 346 315 321 299 308 322 306 289 278 269 323 335
151 151 169 177 185 171 171 160 163 151 180 169 170 152 163 187 206 209 231 220 209 194 204 15 13 39 35 305 278 326 303 328 336 306 294 299 316 306 306 298 240 290 307
160 169 179 187 144 164 167 171 172 186 188 179 182 179 191 188 191 176 221 248 106 227 249 236 296 289 275 294 298 291 296 299 299 291 288 294 308 305 289 262 256 279 289
169 172 178 186 178 167 170 180 187 202 198 181 188 188 195 191 210 182 195 200 212 219 225 231 239 250 260 269 271 280 281 287 288 287 285 288 297 302 292 270 255 270 277
138 151 162 184 190 188 186 185 191 196 189 191 191 193 199 201 207 201 203 208 212 220 227 234 239 250 254 264 268 269 280 283 286 292 280 283 284 293 298 286 270 257 253
182 177 185 188 189 193 179 191 202 208 211 193 194 197 202 207 205 213 211 221 222 223 232 241 245 253 260 265 270 273 271 266 284 272 278 286 290 284 290 294 291 277 264
198 181 190 191 195 201 201 202 201 202 214 193 200 208 209 210 211 213 219 224 231 237 235 245 257 264 267 269 277 281 282 283 284 283 278 284 290 294 282 285 293 289 288
197 194 189 185 190 193 193 196 205 217 204 205 208 206 210 213 216 218 221 230 234 243 248 255 262 270 278 280 284 285 278 278 274 274 281 281 290 292 291 279 294 293 293
197 196 197 191 189 192 195 193 198 208 209 207 209 208 210 211 213 221 227 238 246 254 259 266 270 272 270 273 282 278 275 275 275 271 276 286 285 287 300 305 299 296 303
195 192 193 192 194 192 196 198 198 207 213 211 211 207 210 208 215 222 233 247 253 258 261 268 274 278 277 279 288 283 288 297 280 268 264 282 235 343 308 305 304 305 304
200 198 193 195 195 198 198 201 206 208 216 219 216 219 225 226 231 236 240 242 250 255 259 264 271 281 281 273 259 312 275 302 280 263 227 231 290 306 335 317 323 328 325
184 201 199 199 199 200 203 206 205 206 205 200 183 193 214 231 231 237 244 248 257 265 268 271 272 271 271 267 264 240 295 251 350 106 202 189 274 331 272 343 69 29 18
189 192 192 192 189 198 201 204 203 201 190 208 201 198 216 231 242 243 249 254 253 252 258 268 275 269 259 264 257 249 259 269 271 307 258 245 248 160 55 84 67 79 290
183 191 193 190 198 195 189 197 195 184 201 192 192 206 230 248 258 260 262 264 267 270 268 264 262 264 267 258 250 262 261 261 252 228 259 259 229 179 304 270 256 260 321
170 180 183 185 195 212 199 193 201 198 196 208 202 198 209 226 260 277 277 275 274 275 275 268 266 261 256 253 256 252 253 234 220 200 218 238 233 260 273 234 231 243 304
Height
798 800 806 810 813 816 818 820 822 824 826 827 828 829 830 831 832 833 834 834 835 836 837 839 840 840 840 841 841 841 842 842 842 842 843 842 843 843 843 843 843 842 841
794 800 806 810 814 816 819 821 823 825 827 829 830 831 832 833 834 835 836 838 839 840 841 842 843 843 843 843 844 844 844 844 845 845 846 846 845 845 846 846 845 845 844
795 801 806 811 814 817 820 822 824 826 828 830 832 833 834 836 836 838 839 840 841 843 844 845 845 845 845 845 846 846 846 847 848 848 849 849 848 848 848 848 848 848 847
797 802 806 811 815 818 820 822 825 828 830 832 833 835 836 838 839 840 841 842 844 845 846 846 846 847 847 847 848 849 849 849 850 850 850 851 851 852 851 851 851 850 848
800 804 808 812 816 818 821 823 826 829 831 834 835 837 838 840 840 842 843 843 845 846 847 848 848 848 849 849 850 851 852 851 852 853 853 853 854 854 853 852 852 851 850
802 805 809 813 817 820 823 825 827 829 831 835 837 839 840 841 842 843 844 844 846 847 848 849 850 851 851 852 853 853 854 854 854 855 855 855 854 855 854 854 853 852 852
802 806 811 815 819 822 824 827 829 831 833 835 838 840 841 842 843 845 846 847 848 849 850 851 852 852 853 854 855 855 856 855 856 856 856 856 856 856 855 855 853 853 852
802 808 812 816 820 823 826 828 831 833 835 837 839 842 843 844 845 846 848 849 849 851 851 852 853 854 854 855 855 856 856 856 856 856 856 856 856 856 856 856 855 854 853
804 809 814 818 821 824 828 830 832 834 836 838 841 843 845 846 847 847 848 850 851 852 852 853 854 855 855 856 856 857 857 857 857 857 857 857 857 857 857 856 855 855 854
805 810 815 819 822 824 828 832 833 834 836 839 842 844 845 847 848 849 850 851 852 853 853 854 855 855 856 857 857 858 858 858 858 858 858 857 857 857 858 857 856 856 854
805 809 816 819 823 825 828 832 835 836 837 840 842 845 847 847 847 849 850 851 853 854 854 855 855 856 857 857 858 858 858 858 858 858 857 857 857 856 857 856 855 855 855
807 810 815 819 822 826 828 831 835 837 839 840 842 844 847 849 849 849 851 852 852 854 855 856 856 857 857 857 858 859 858 858 858 858 857 857 856 856 855 856 855 855 854
806 811 816 818 821 823 827 830 833 837 839 840 842 844 846 848 850 851 851 851 852 853 854 856 857 857 858 859 859 859 859 858 858 858 857 856 855 855 854 853 854 854 854
806 810 816 818 820 823 826 830 833 835 838 840 843 844 845 847 848 850 850 851 851 853 854 855 856 857 858 858 858 858 858 858 857 857 856 855 854 854 853 853 853 852 852
805 809 813 818 821 823 825 829 831 833 837 838 840 843 845 846 848 848 850 851 852 853 854 855 856 856 857 857 857 857 857 857 857 856 855 854 853 853 852 851 851 850 850
805 809 812 817 820 822 824 828 830 832 835 837 838 841 844 845 846 848 848 850 850 852 853 854 854 855 855 855 855 855 855 855 854 854 853 852 851 850 850 850 849 849 849
806 810 812 816 819 822 823 827 829 831 832 835 837 839 841 844 845 847 848 849 850 851 852 853 853 853 853 853 853 853 852 852 852 851 850 849 848 847 847 847 847 847 847
805 808 811 814 817 820 822 824 828 829 831 833 835 837 839 842 843 845 846 847 849 850 850 851 852 853 852 851 850 850 849 849 848 847 847 846 846 845 844 844 845 845 844
804 807 809 811 814 818 821 822 825 828 828 831 833 835 837 839 841 843 844 846 847 848 849 850 850 850 850 850 849 847 847 846 845 844 843 842 843 843 842 842 843 843 843
801 804 808 809 812 816 819 821 823 826 827 829 831 832 834 837 838 841 842 843 844 845 846 848 848 848 847 847 846 845 844 843 841 841 840 840 840 840 840 840 840 840 840
799 800 804 807 809 813 816 818 820 823 826 827 829 830 832 835 837 837 839 841 841 842 843 844 845 844 844 844 844 843 841 840 838 837 837 838 837 837 838 839 839 840 839
795 798 802 804 806 810 813 816 819 821 823 825 827 828 829 832 835 834 836 837 839 839 839 840 840 840 841 841 842 842 840 837 834 832 834 834 835 836 838 838 839 838 838
791 795 799 801 804 807 811 814 816 818 821 822 824 825 827 830 831 831 832 833 834 836 836 837 837 838 837 837 838 840 838 839 834 834 834 834 835 837 837 838 838 837 837
788 790 795 799 801 804 807 809 810 814 819 820 821 822 825 828 828 829 829 830 830 831 832 833 833 833 833 833 834 835 836 837 837 837 835 834 834 835 836 836 836 836 835
785 788 791 795 800 799 802 805 808 812 816 818 819 820 823 825 826 827 828 827 828 828 829 829 830 830 830 830 830 831 832 833 833 835 835 833 834 833 833 833 833 836 834
784 788 790 793 797 801 801 802 807 809 813 815 817 819 822 823 824 825 825 825 826 826 826 826 827 826 827 826 827 828 829 828 828 830 832 830 831 830 832 830 829 832 833